Orlando, FL

1:00 AM EST on February 12, 2016 (GMT -0500)
Executive

Weather History for KORL - February, 2013

Change the Weather History Date:

Thursday, February 14, 2013

  Actual Average Record
Temperature  
Mean Temperature 62 °F -  
Max Temperature 66 °F 71 °F 87 °F (1997)
Min Temperature 57 °F 52 °F 37 °F (2006)
Degree Days  
Heating Degree Days 4    
Growing Degree Days 12 (Base 50)    
Moisture  
Dew Point 58 °F    
Average Humidity 85    
Maximum Humidity 97    
Minimum Humidity 70    
Precipitation  
Precipitation 0.24 in - - ()
Sea Level Pressure  
Sea Level Pressure 30.02 in    
Wind  
Wind Speed 4 mph (NNW)    
Max Wind Speed 10 mph    
Max Gust Speed 16 mph    
Visibility 10 miles    
Events Rain    
Averages and records for this station are not official NWS values.
T = Trace of Precipitation, MM = Missing Value Source: NWS Daily Summary

Daily Weather History Graph

Daily Weather History Graph

Search for Another Location

Airport or City:

Trip Planner

Search our weather history database for the weather conditions in past years. The results will help you decide how hot, cold, wet, or windy it might be!

Date:

Astronomy

Feb. 14, 2013 Rise Set
Actual Time 7:04 AM EST 6:15 PM EST
Civil Twilight 6:40 AM EST 6:39 PM EST
Nautical Twilight 6:12 AM EST 7:07 PM EST
Astronomical Twilight 5:44 AM EST 7:34 PM EST
Moon 9:32 AM EST (2/14) 10:46 PM EST (2/14)
Length of Visible Light 11h 59m
Length of Day
11h 11m
Waxing Crescent, 21% of the Moon is Illuminated
Feb 14
Waxing Crescent
Feb 17
First Quarter
Feb 25
Full
Mar 4
Last Quarter
Mar 11
New

Hourly Weather History & Observations

Time (EST) Temp. Dew Point Humidity Pressure Visibility Wind Dir Wind Speed Gust Speed Precip Events Conditions
12:53 AM 64.9 °F 60.1 °F 84% 29.99 in 10.0 mi WNW 5.8 mph - 0.00 in Rain Light Rain
1:53 AM 64.9 °F 60.1 °F 84% 29.99 in 10.0 mi West 3.5 mph - 0.00 in   Overcast
2:53 AM 64.9 °F 59.0 °F 81% 29.98 in 10.0 mi NW 3.5 mph - N/A   Overcast
3:53 AM 63.0 °F 57.0 °F 81% 29.95 in 10.0 mi Calm Calm - 0.01 in   Overcast
4:53 AM 64.0 °F 59.0 °F 84% 29.96 in 10.0 mi Calm Calm - N/A   Overcast
5:53 AM 64.0 °F 60.1 °F 87% 29.97 in 10.0 mi NW 3.5 mph - N/A   Overcast
6:53 AM 63.0 °F 60.1 °F 90% 29.99 in 10.0 mi Calm Calm - N/A   Mostly Cloudy
7:53 AM 64.0 °F 59.0 °F 84% 30.01 in 10.0 mi NW 4.6 mph - N/A   Scattered Clouds
8:53 AM 64.9 °F 59.0 °F 81% 30.03 in 10.0 mi Calm Calm - N/A   Overcast
9:53 AM 66.0 °F 57.9 °F 75% 30.05 in 10.0 mi NW 6.9 mph - N/A   Mostly Cloudy
10:53 AM 66.9 °F 57.9 °F 73% 30.06 in 10.0 mi NW 5.8 mph - N/A   Overcast
11:23 AM 66.2 °F 59.0 °F 78% 30.05 in 10.0 mi North 9.2 mph 16.1 mph N/A   Overcast
11:53 AM 66.0 °F 57.9 °F 75% 30.06 in 10.0 mi North 10.4 mph - N/A   Overcast
12:13 PM 66.2 °F 57.2 °F 73% 30.05 in 10.0 mi North 8.1 mph - N/A   Overcast
12:53 PM 66.0 °F 55.9 °F 70% 30.03 in 10.0 mi NNE 8.1 mph - N/A   Overcast
1:53 PM 66.0 °F 55.9 °F 70% 30.03 in 10.0 mi WNW 3.5 mph - N/A   Overcast
2:53 PM 66.0 °F 57.0 °F 73% 29.99 in 10.0 mi Calm Calm - N/A   Overcast
3:53 PM 64.9 °F 57.0 °F 75% 29.99 in 10.0 mi Calm Calm - 0.01 in Rain Light Rain
4:53 PM 64.0 °F 59.0 °F 84% 30.02 in 7.0 mi NW 5.8 mph - 0.02 in Rain Light Rain
5:53 PM 61.0 °F 57.9 °F 90% 30.03 in 6.0 mi North 8.1 mph - 0.11 in Rain Rain
5:57 PM 60.8 °F 57.2 °F 88% 30.03 in 7.0 mi North 9.2 mph - 0.00 in Rain Light Rain
6:53 PM 59.0 °F 57.9 °F 96% 30.03 in 7.0 mi North 10.4 mph - 0.05 in Rain Rain
7:53 PM 57.9 °F 57.0 °F 97% 30.06 in 10.0 mi NNW 5.8 mph - 0.02 in   Overcast
8:53 PM 57.0 °F 55.0 °F 93% 30.06 in 10.0 mi East 4.6 mph - 0.00 in   Overcast
9:53 PM 57.0 °F 55.9 °F 96% 30.04 in 10.0 mi SE 4.6 mph - 0.00 in   Overcast
10:00 PM 57.2 °F 55.4 °F 94% 30.02 in 10.0 mi SE 3.5 mph - N/A   Overcast
10:15 PM 57.2 °F 55.4 °F 94% 30.00 in 10.0 mi SE 6.9 mph - N/A   Overcast
10:27 PM 57.2 °F 55.4 °F 94% 30.01 in 10.0 mi ESE 3.5 mph - N/A   Overcast
10:53 PM 57.9 °F 57.0 °F 97% 30.05 in 9.0 mi Calm Calm - 0.01 in Rain Light Rain
11:53 PM 57.9 °F 57.0 °F 97% 30.03 in 8.0 mi East 3.5 mph - 0.01 in Rain Light Rain